PGT0712 UKDE-UKHH

Flight info

Callsign PGT0712
Flight time 0h 34m
Altitude 21000
Route ODNIV P29 ROKOX
Aircraft A20N/M-SDE2E3FGHIRWXY/LB1

Departure

Time 2026-04-29 10:16
Airport Zaporizhzhia International Airport (UKDE)

Arrival

Time 2026-04-29 10:50
Airport Kharkiv International Airport (UKHH)
Time Latitude Longitude Altitude Speed Heading
2026-04-29 09:53 47.87137 35.30240 369 ft 0 kts 311°
2026-04-29 10:03 47.87132 35.30248 374 ft 1 kts 314°
2026-04-29 10:03 47.87118 35.30266 370 ft 3 kts 333°
2026-04-29 10:03 47.87093 35.30278 368 ft 4 kts 356°
2026-04-29 10:04 47.87070 35.30266 372 ft 1 kts 63°
2026-04-29 10:09 47.87071 35.30269 368 ft 2 kts 63°
2026-04-29 10:09 47.87085 35.30309 371 ft 7 kts 63°
2026-04-29 10:09 47.87088 35.30399 367 ft 11 kts 124°
2026-04-29 10:10 47.87013 35.30475 365 ft 15 kts 149°
2026-04-29 10:10 47.86907 35.30567 366 ft 20 kts 149°
2026-04-29 10:10 47.86780 35.30675 361 ft 21 kts 150°
2026-04-29 10:10 47.86652 35.30790 363 ft 23 kts 142°
2026-04-29 10:11 47.86594 35.31013 357 ft 26 kts 94°
2026-04-29 10:11 47.86581 35.31260 354 ft 4 kts 94°
2026-04-29 10:11 47.86581 35.31261 354 ft 0 kts 94°
2026-04-29 10:11 47.86581 35.31277 355 ft 7 kts 94°
2026-04-29 10:12 47.86616 35.31435 366 ft 25 kts 37°
2026-04-29 10:12 47.86796 35.31564 368 ft 32 kts 23°
2026-04-29 10:12 47.87012 35.31696 372 ft 36 kts 25°
2026-04-29 10:12 47.87242 35.31841 377 ft 36 kts 22°
2026-04-29 10:13 47.87466 35.31985 382 ft 35 kts 24°
2026-04-29 10:13 47.87657 35.32119 384 ft 19 kts 24°
2026-04-29 10:13 47.87670 35.32094 384 ft 3 kts 239°
2026-04-29 10:13 47.87658 35.32084 384 ft 0 kts 205°
2026-04-29 10:15 47.87657 35.32084 384 ft 1 kts 205°
2026-04-29 10:15 47.87423 35.31935 382 ft 78 kts 203°
2026-04-29 10:15 47.86724 35.31503 368 ft 136 kts 202°
2026-04-29 10:15 47.85785 35.30906 750 ft 146 kts 206°
2026-04-29 10:16 47.84848 35.30317 1384 ft 147 kts 206°
2026-04-29 10:16 47.83901 35.29714 2007 ft 151 kts 206°
2026-04-29 10:16 47.82802 35.28994 2496 ft 188 kts 206°
2026-04-29 10:16 47.81565 35.28215 3528 ft 199 kts 204°
2026-04-29 10:17 47.80168 35.27710 4492 ft 218 kts 179°
2026-04-29 10:17 47.78664 35.28385 5488 ft 240 kts 149°
2026-04-29 10:17 47.77471 35.30261 6358 ft 266 kts 121°
2026-04-29 10:17 47.76965 35.32985 7253 ft 283 kts 92°
2026-04-29 10:18 47.77348 35.35898 8247 ft 294 kts 64°
2026-04-29 10:18 47.78548 35.38321 9297 ft 297 kts 37°
2026-04-29 10:18 47.80345 35.39784 10350 ft 295 kts 10°
2026-04-29 10:18 47.82417 35.40036 10930 ft 306 kts 345°
2026-04-29 10:19 47.84437 35.38939 11424 ft 316 kts 321°
2026-04-29 10:19 47.86058 35.36790 12337 ft 317 kts 310°
2026-04-29 10:19 47.87738 35.34592 13438 ft 326 kts 318°
2026-04-29 10:19 47.89679 35.32759 14462 ft 335 kts 323°
2026-04-29 10:20 47.91827 35.31226 15436 ft 346 kts 331°
2026-04-29 10:20 47.94112 35.29986 16411 ft 354 kts 335°
2026-04-29 10:20 47.96482 35.28864 17375 ft 360 kts 336°
2026-04-29 10:20 47.98900 35.27765 18332 ft 366 kts 336°
2026-04-29 10:21 48.01322 35.26666 19226 ft 369 kts 335°
2026-04-29 10:21 48.03795 35.25531 20124 ft 372 kts 334°
2026-04-29 10:21 48.06290 35.24368 20839 ft 381 kts 334°
2026-04-29 10:21 48.08880 35.23142 21137 ft 401 kts 334°
2026-04-29 10:22 48.11596 35.21851 21190 ft 410 kts 334°
2026-04-29 10:22 48.14374 35.20539 21191 ft 425 kts 335°
2026-04-29 10:22 48.17150 35.19242 21191 ft 408 kts 335°
2026-04-29 10:22 48.19792 35.18019 21190 ft 387 kts 334°
2026-04-29 10:23 48.22308 35.16846 21193 ft 374 kts 334°
2026-04-29 10:23 48.24821 35.15643 21192 ft 381 kts 334°
2026-04-29 10:23 48.27309 35.14449 21193 ft 380 kts 334°
2026-04-29 10:23 48.29825 35.13252 21194 ft 377 kts 333°
2026-04-29 10:24 48.32327 35.12061 21193 ft 378 kts 333°
2026-04-29 10:24 48.34919 35.11153 21191 ft 389 kts 343°
2026-04-29 10:24 48.37667 35.11042 21193 ft 402 kts 356°
2026-04-29 10:24 48.40467 35.11760 21195 ft 413 kts
2026-04-29 10:25 48.43276 35.12701 21190 ft 413 kts
2026-04-29 10:25 48.46088 35.13640 21201 ft 413 kts
2026-04-29 10:25 48.48898 35.14573 21193 ft 413 kts
2026-04-29 10:25 48.51704 35.15503 21190 ft 413 kts
2026-04-29 10:26 48.54511 35.16432 21193 ft 413 kts
2026-04-29 10:26 48.57313 35.17361 21194 ft 413 kts
2026-04-29 10:26 48.60086 35.18281 21197 ft 413 kts
2026-04-29 10:26 48.62895 35.19214 21224 ft 414 kts
2026-04-29 10:27 48.68570 35.21100 21198 ft 416 kts
2026-04-29 10:27 48.71407 35.22050 21209 ft 417 kts
2026-04-29 10:27 48.74239 35.22999 21197 ft 417 kts
2026-04-29 10:28 48.77073 35.23945 21197 ft 417 kts
2026-04-29 10:28 48.79911 35.24892 21198 ft 417 kts
2026-04-29 10:28 48.82705 35.25825 21195 ft 417 kts
2026-04-29 10:28 48.85538 35.26774 21194 ft 417 kts
2026-04-29 10:29 48.88376 35.27726 21195 ft 418 kts
2026-04-29 10:29 48.91212 35.28679 21195 ft 418 kts
2026-04-29 10:29 48.94052 35.29634 21195 ft 418 kts
2026-04-29 10:29 48.96896 35.30593 21195 ft 418 kts
2026-04-29 10:30 48.99740 35.31551 21194 ft 418 kts
2026-04-29 10:30 49.02577 35.32509 21195 ft 418 kts
2026-04-29 10:30 49.05413 35.33467 21196 ft 418 kts
2026-04-29 10:30 49.08252 35.34426 21195 ft 418 kts
2026-04-29 10:31 49.11097 35.35389 21199 ft 419 kts
2026-04-29 10:31 49.13939 35.36350 21191 ft 419 kts
2026-04-29 10:31 49.16785 35.37317 21193 ft 418 kts
2026-04-29 10:31 49.19634 35.38286 21237 ft 419 kts
2026-04-29 10:32 49.22467 35.39250 21191 ft 414 kts
2026-04-29 10:32 49.25285 35.40210 21191 ft 416 kts
2026-04-29 10:32 49.28120 35.41176 21193 ft 416 kts
2026-04-29 10:32 49.30944 35.42139 21191 ft 416 kts
2026-04-29 10:33 49.33772 35.43106 21212 ft 416 kts
2026-04-29 10:33 49.36599 35.44166 21190 ft 423 kts 11°
2026-04-29 10:33 49.39299 35.46134 21186 ft 435 kts 25°
2026-04-29 10:33 49.41684 35.48981 21191 ft 444 kts 42°
2026-04-29 10:34 49.43533 35.52823 21175 ft 449 kts 60°
2026-04-29 10:34 49.44906 35.57127 20960 ft 447 kts 64°
2026-04-29 10:34 49.46227 35.61428 20569 ft 443 kts 64°
2026-04-29 10:34 49.47536 35.65693 20081 ft 437 kts 64°
2026-04-29 10:35 49.48822 35.69900 19587 ft 432 kts 64°
2026-04-29 10:35 49.50093 35.74063 19102 ft 427 kts 64°
2026-04-29 10:35 49.51356 35.78147 18668 ft 419 kts 64°
2026-04-29 10:35 49.52586 35.82120 18150 ft 415 kts 64°
2026-04-29 10:36 49.53819 35.86103 17608 ft 409 kts 64°
2026-04-29 10:36 49.55053 35.90083 17057 ft 404 kts 64°
2026-04-29 10:36 49.56255 35.93971 16341 ft 404 kts 64°
2026-04-29 10:36 49.57445 35.97833 15813 ft 401 kts 64°
2026-04-29 10:37 49.58637 36.01685 15357 ft 395 kts 64°
2026-04-29 10:37 49.59817 36.05477 14869 ft 390 kts 64°
2026-04-29 10:37 49.60988 36.09223 14407 ft 385 kts 64°
2026-04-29 10:37 49.62147 36.12915 13941 ft 380 kts 64°
2026-04-29 10:38 49.63296 36.16560 13451 ft 374 kts 64°
2026-04-29 10:38 49.64430 36.20140 12986 ft 368 kts 64°
2026-04-29 10:38 49.65544 36.23659 12488 ft 363 kts 64°
2026-04-29 10:38 49.66644 36.27142 12026 ft 358 kts 64°
2026-04-29 10:39 49.67724 36.30566 11568 ft 352 kts 64°
2026-04-29 10:39 49.68792 36.33954 11099 ft 347 kts 64°
2026-04-29 10:39 49.69840 36.37288 10645 ft 342 kts 64°
2026-04-29 10:39 49.70849 36.40502 10437 ft 329 kts 64°
2026-04-29 10:40 49.71826 36.43618 10325 ft 315 kts 64°
2026-04-29 10:40 49.72771 36.46634 9947 ft 310 kts 64°
2026-04-29 10:40 49.73710 36.49642 9331 ft 312 kts 64°
2026-04-29 10:40 49.74654 36.52678 8739 ft 314 kts 64°
2026-04-29 10:41 49.75601 36.55729 8135 ft 314 kts 64°
2026-04-29 10:41 49.76531 36.58734 7570 ft 307 kts 64°
2026-04-29 10:41 49.77445 36.61693 7000 ft 300 kts 64°
2026-04-29 10:41 49.78336 36.64580 6433 ft 295 kts 64°
2026-04-29 10:42 49.79217 36.67378 5842 ft 290 kts 59°
2026-04-29 10:42 49.80535 36.69648 5263 ft 282 kts 32°
2026-04-29 10:42 49.82316 36.70751 4689 ft 273 kts
2026-04-29 10:42 49.84167 36.70489 4105 ft 265 kts 340°
2026-04-29 10:43 49.85905 36.69604 3526 ft 262 kts 339°
2026-04-29 10:43 49.87630 36.68730 2949 ft 260 kts 339°
2026-04-29 10:43 49.89328 36.67854 2570 ft 251 kts 337°
2026-04-29 10:43 49.90772 36.66378 2465 ft 249 kts 308°
2026-04-29 10:44 49.91723 36.64175 2456 ft 244 kts 299°
2026-04-29 10:44 49.92602 36.61943 2452 ft 235 kts 299°
2026-04-29 10:44 49.93408 36.59902 2453 ft 213 kts 299°
2026-04-29 10:44 49.94142 36.58049 2453 ft 190 kts 298°
2026-04-29 10:45 49.94708 36.56319 2457 ft 176 kts 279°
2026-04-29 10:45 49.94775 36.54426 2467 ft 165 kts 265°
2026-04-29 10:45 49.94651 36.52831 2472 ft 133 kts 261°
2026-04-29 10:45 49.94526 36.51472 2454 ft 124 kts 262°
2026-04-29 10:46 49.94416 36.50139 2462 ft 124 kts 263°
2026-04-29 10:46 49.94305 36.48804 2470 ft 126 kts 262°
2026-04-29 10:46 49.94195 36.47448 2465 ft 126 kts 262°
2026-04-29 10:46 49.94084 36.46094 2460 ft 126 kts 262°
2026-04-29 10:47 49.93975 36.44769 2388 ft 120 kts 263°
2026-04-29 10:47 49.93867 36.43458 2219 ft 123 kts 262°
2026-04-29 10:47 49.93761 36.42166 2045 ft 120 kts 263°
2026-04-29 10:47 49.93656 36.40870 1882 ft 122 kts 262°
2026-04-29 10:48 49.93547 36.39543 1704 ft 126 kts 262°
2026-04-29 10:48 49.93439 36.38232 1528 ft 124 kts 262°
2026-04-29 10:48 49.93330 36.36896 1364 ft 122 kts 261°
2026-04-29 10:48 49.93224 36.35613 1183 ft 124 kts 262°
2026-04-29 10:49 49.93116 36.34283 1008 ft 124 kts 263°
2026-04-29 10:49 49.93007 36.32959 840 ft 124 kts 262°
2026-04-29 10:49 49.92894 36.31634 658 ft 126 kts 262°
2026-04-29 10:49 49.92785 36.30290 540 ft 124 kts 262°
2026-04-29 10:50 49.92692 36.29195 514 ft 63 kts 263°
2026-04-29 10:50 49.92671 36.28938 514 ft 6 kts 262°
2026-04-29 10:50 49.92641 36.28597 512 ft 41 kts 262°
2026-04-29 10:50 49.92571 36.28272 506 ft 19 kts 239°
2026-04-29 10:51 49.92537 36.28200 504 ft 16 kts 231°
2026-04-29 10:51 49.92506 36.28156 501 ft 0 kts 204°
2026-04-29 10:52 49.92473 36.28143 499 ft 16 kts 200°
2026-04-29 10:52 49.92313 36.28127 487 ft 22 kts 165°
2026-04-29 10:53 49.92207 36.28219 486 ft 24 kts 148°
2026-04-29 10:53 49.92153 36.28251 487 ft 6 kts 218°
2026-04-29 10:53 49.92125 36.28191 488 ft 0 kts 238°